GEFSGL_850_meantemp_078.txt.gz
Temperature
14 14 13 13 13 12 12 12 12 12 11 11 11 11 11 11 11 11 11 11 11 11 11 12 12 12 12 12 12 12 12 12 12 13 13 14 14 14 15 15 15 16 16
14 14 14 13 13 13 13 12 12 12 12 11 11 11 11 11 11 11 11 11 11 11 11 11 12 12 12 12 12 12 12 12 12 12 13 13 14 14 14 15 15 15 16
15 15 14 14 14 13 13 13 12 12 12 12 11 11 11 11 11 11 11 11 11 11 11 11 11 11 12 12 12 12 12 12 12 12 12 13 13 13 14 14 15 15 15
15 15 15 14 14 14 14 13 13 13 12 12 12 12 11 11 11 11 11 11 11 11 11 11 11 11 11 11 11 12 12 12 12 12 12 12 13 13 13 14 14 14 15
16 15 15 15 15 14 14 14 13 13 13 12 12 12 12 12 12 12 11 11 11 11 11 11 11 11 11 11 11 11 11 11 11 12 12 12 12 13 13 13 13 14 14
16 16 16 15 15 15 14 14 14 14 13 13 13 12 12 12 12 12 12 12 12 11 11 11 11 11 11 11 11 11 11 11 11 11 11 11 12 12 12 13 13 13 13
16 16 16 16 16 15 15 15 14 14 14 13 13 13 13 12 12 12 12 12 12 12 11 11 11 11 11 11 11 11 11 11 11 11 11 11 12 12 12 12 12 12 13
17 17 16 16 16 16 15 15 15 14 14 14 13 13 13 13 12 12 12 12 12 12 12 12 11 11 11 11 11 11 11 11 11 11 11 11 11 11 11 12 12 12 12
17 17 17 16 16 16 16 15 15 15 14 14 14 14 13 13 13 12 12 12 12 12 12 12 11 11 11 11 11 11 11 11 11 11 11 11 11 11 11 11 11 11 12
17 17 17 17 16 16 16 15 15 15 14 14 14 14 14 13 13 13 12 12 12 12 12 12 11 11 11 11 11 11 11 11 11 11 11 11 11 11 11 11 11 11 11
17 17 17 16 16 16 16 15 15 15 14 14 14 14 14 14 13 13 13 12 12 12 12 12 11 11 11 11 11 11 11 11 11 11 11 11 11 11 11 11 11 11 11
17 17 16 16 16 16 15 15 15 15 14 14 14 14 14 14 13 13 13 13 12 12 12 12 11 11 11 11 11 11 11 11 11 11 11 11 11 11 11 11 11 11 11
17 16 16 16 15 15 15 15 14 14 14 14 13 14 14 14 13 13 13 13 13 12 12 12 11 11 11 11 11 11 11 11 11 11 11 11 11 11 11 11 11 11 11
16 16 16 15 15 15 14 14 13 13 13 13 13 13 13 13 13 13 13 13 13 12 12 12 11 11 11 11 11 11 11 11 11 11 11 11 11 11 11 11 11 11 11
16 16 15 15 14 14 13 12 12 12 12 12 12 12 12 12 13 12 13 12 12 12 12 11 11 11 11 11 11 11 10 10 10 10 10 10 10 10 10 10 11 11 10
16 15 15 14 13 12 12 11 11 10 10 10 11 11 11 11 12 12 12 12 12 12 11 11 11 10 10 11 11 11 10 10 10 10 10 10 10 10 10 10 10 10 10
15 15 14 13 12 11 11 10 10 9 9 10 10 10 10 10 11 11 11 11 11 11 11 11 10 10 10 10 10 10 10 10 10 10 10 10 10 10 10 10 10 10 10
14 14 13 12 11 11 10 9 9 9 9 9 9 9 9 9 10 10 10 10 10 10 10 10 9 9 9 9 9 9 9 9 9 9 9 9 9 9 10 10 10 10 10
13 13 12 11 10 10 9 9 8 8 8 8 8 8 8 8 8 9 9 9 9 9 8 8 8 8 8 8 8 8 8 8 8 8 9 9 9 9 9 9 9 9 9
12 11 11 10 9 9 8 8 8 7 7 7 7 7 7 7 8 8 7 7 7 7 7 7 7 7 7 7 7 7 7 7 7 7 7 7 8 8 8 8 8 8 8
11 10 10 9 8 8 8 7 7 7 7 7 6 6 6 6 6 6 6 6 6 6 6 6 5 5 5 6 6 6 6 6 6 6 6 6 6 7 7 7 7 7 7
10 10 9 8 8 7 7 6 6 6 6 6 5 5 5 5 5 5 5 5 4 4 4 4 4 4 4 4 4 4 4 4 4 5 5 5 5 5 5 6 6 6 6
9 8 8 7 7 6 6 6 5 5 5 5 5 4 4 4 4 4 4 4 3 3 3 3 3 3 3 3 3 3 3 3 3 3 3 3 4 4 4 4 5 5 5
8 8 7 7 6 6 5 5 5 5 4 4 4 4 4 4 3 3 3 3 3 3 3 3 3 2 2 2 2 2 2 2 2 2 2 2 2 3 3 3 3 4 4
7 7 6 6 6 5 5 5 5 4 4 4 4 4 3 3 3 3 3 3 3 2 2 2 2 2 2 2 2 2 2 2 2 2 1 1 2 2 2 2 2 2 3
6 6 6 6 5 5 5 5 4 4 4 4 3 3 3 3 3 3 2 2 2 2 2 2 2 2 2 2 2 1 1 1 1 1 1 1 1 1 1 1 1 1 2

GEFSGL_850_meantemp_084.txt.gz
Temperature
14 14 13 13 13 13 12 12 12 12 12 12 11 12 12 12 12 11 11 11 11 12 12 12 11 11 12 12 12 12 12 12 13 13 14 13 13 13 14 14 14 15 15
14 14 14 13 13 13 13 12 12 12 12 12 12 12 12 12 12 11 11 11 11 11 11 11 12 12 12 12 12 12 12 12 12 13 13 13 13 13 13 13 14 14 15
15 14 14 14 14 13 13 13 13 12 12 12 12 12 12 12 12 11 12 12 12 11 11 11 11 11 11 12 12 12 12 12 12 12 13 13 13 13 13 13 13 14 14
15 15 14 14 14 14 13 13 13 13 13 12 12 12 12 12 12 12 12 12 12 12 11 11 11 11 11 11 11 12 12 12 12 12 12 12 12 12 13 13 13 13 13
15 15 15 15 14 14 14 14 14 13 13 13 13 12 12 12 12 12 12 12 12 12 12 11 11 12 12 12 11 11 11 12 12 12 12 12 12 12 12 12 12 13 13
16 15 15 15 15 15 14 14 14 14 14 13 13 13 13 12 13 13 12 12 12 12 12 11 11 11 12 12 12 12 12 11 11 11 12 12 12 12 12 12 12 12 12
16 16 15 16 15 15 15 15 15 14 14 14 14 13 13 13 13 13 13 12 12 12 12 12 11 11 12 11 11 12 12 12 12 11 11 12 12 12 12 12 12 12 12
16 16 16 16 16 16 16 15 15 15 14 14 14 14 14 13 13 13 13 13 12 12 12 12 12 11 11 11 11 11 11 11 11 11 11 11 11 11 11 12 12 12 12
17 16 16 16 16 16 16 16 15 15 15 14 14 14 14 13 13 13 13 12 12 12 12 12 12 12 12 12 11 11 11 11 11 12 12 12 12 12 12 12 12 11 12
17 17 16 16 16 16 16 16 15 15 15 15 14 14 14 13 13 13 13 13 12 12 12 12 12 12 12 12 11 11 11 11 11 11 11 11 11 12 12 12 12 11 11
17 17 17 17 17 16 16 16 15 15 15 14 14 14 14 13 13 13 13 13 12 12 12 12 12 12 12 12 12 11 11 11 11 11 11 11 11 11 11 11 11 11 11
17 17 17 17 17 16 16 16 15 15 14 14 13 13 13 13 13 13 13 13 13 12 12 12 12 12 12 12 12 12 12 11 11 11 11 11 11 11 11 11 11 11 11
17 17 17 17 16 16 15 15 14 14 13 13 13 13 12 12 12 13 13 13 13 12 12 12 12 12 12 11 11 11 11 11 11 11 11 11 11 11 11 11 11 11 11
17 17 17 16 16 15 15 14 14 13 12 12 12 12 12 11 11 12 12 12 12 12 12 12 12 12 11 11 11 11 11 10 10 10 10 10 10 10 11 11 11 11 11
17 17 16 16 15 15 14 14 13 13 13 12 11 11 11 11 11 12 12 11 11 11 11 11 11 11 11 10 10 10 10 10 10 10 10 10 10 10 10 10 10 10 10
17 16 16 16 15 15 14 14 13 12 12 11 11 11 11 11 11 11 11 11 11 11 11 10 10 10 10 10 10 10 10 10 10 9 9 9 9 9 9 9 9 10 10
17 16 16 15 15 14 13 13 12 11 11 10 10 10 10 10 10 10 10 10 10 10 10 9 9 9 9 9 9 9 9 9 9 9 9 9 9 9 9 9 9 9 9
16 16 16 15 15 14 13 12 11 10 10 9 9 10 9 9 9 9 9 9 9 9 9 8 8 8 8 8 8 8 8 8 8 8 7 8 8 8 8 8 8 8 8
16 16 15 15 14 13 12 11 10 9 9 9 8 8 9 8 8 8 8 8 8 8 7 7 7 7 7 7 7 7 6 6 6 6 6 6 6 7 7 7 7 7 7
16 15 15 14 13 13 12 11 10 9 9 8 8 7 7 7 7 7 7 7 7 6 6 6 6 6 6 5 5 5 5 5 5 5 5 5 5 5 5 5 5 5 5
15 15 14 13 13 12 11 10 9 9 8 8 7 7 7 6 6 6 6 6 6 5 5 5 5 5 4 4 4 4 4 4 4 4 4 4 4 4 4 4 4 4 4
15 14 13 12 12 11 10 9 9 8 8 7 7 7 7 6 6 5 5 5 5 5 4 4 4 4 4 3 3 3 3 3 3 3 3 3 3 3 3 3 3 3 3
14 13 12 11 11 10 9 8 8 7 7 6 6 6 5 5 5 5 4 4 4 4 4 3 3 3 3 3 2 2 2 2 2 2 2 2 2 2 2 2 2 2 2
12 12 11 10 10 9 8 8 7 7 6 6 5 5 5 4 4 4 4 4 3 3 3 3 3 2 2 2 2 2 2 2 2 1 1 1 1 1 1 1 1 1 1
11 11 10 9 9 8 7 7 6 6 5 5 5 5 4 4 4 4 3 3 3 3 3 2 2 2 2 2 1 1 1 1 1 1 1 1 1 0 0 0 0 0 0
9 9 9 8 8 7 7 6 6 5 5 5 4 4 4 4 3 3 3 3 3 2 2 2 2 2 1 1 1 1 1 1 1 1 0 0 -0 -0 -0 -0 -0 -0 -0

GEFSGL_850_meantemp_090.txt.gz
Temperature
16 15 15 15 15 14 14 14 14 14 14 14 13 13 13 13 13 13 13 13 13 13 13 13 13 13 13 13 13 13 13 13 14 14 14 14 14 14 14 14 14 15 15
16 15 15 15 15 15 15 14 14 14 14 14 14 14 14 13 13 13 13 13 13 13 13 13 13 13 13 13 13 13 13 13 13 13 14 14 14 14 14 14 14 14 15
16 16 15 15 15 15 15 15 14 14 14 14 14 14 14 14 13 13 13 13 13 13 13 13 13 13 13 13 12 13 13 13 13 13 13 13 13 13 13 14 14 14 14
16 16 16 16 15 15 15 15 15 15 15 14 14 14 14 14 14 14 13 13 13 13 13 13 13 13 13 13 12 12 12 13 13 13 13 13 13 13 13 13 13 14 14
16 16 16 16 16 15 15 15 15 15 15 15 14 14 14 14 14 14 14 13 13 13 13 13 13 13 13 13 13 13 12 12 12 12 13 13 13 13 13 13 13 13 13
17 16 16 16 16 16 15 15 15 15 15 15 15 14 14 14 14 14 14 14 13 13 13 13 13 13 13 13 13 13 13 12 12 12 12 12 12 12 12 13 13 13 13
17 16 16 16 16 16 15 15 15 15 15 15 15 14 14 14 14 14 14 14 14 13 13 13 13 13 13 13 13 12 12 12 12 12 12 12 12 12 12 12 12 12 13
17 17 16 16 16 16 16 15 16 15 15 15 15 15 15 14 14 14 14 14 14 14 13 13 13 13 13 13 12 12 12 12 12 12 12 12 12 12 12 12 12 12 13
18 17 17 17 16 16 16 16 16 15 15 15 15 15 15 14 14 14 14 14 14 14 14 13 13 13 13 13 13 12 12 12 12 12 12 12 12 12 12 12 12 12 12
18 18 17 17 16 16 16 16 16 15 15 15 15 15 14 14 14 14 14 14 14 14 13 13 13 13 13 13 13 12 12 12 12 12 12 12 12 12 12 12 12 12 11
19 18 18 17 17 16 16 16 16 15 15 15 15 15 14 14 14 14 14 14 13 13 13 13 13 13 13 13 13 12 12 12 12 12 12 12 12 12 12 12 11 11 11
19 18 18 17 17 16 16 16 16 16 15 15 15 14 14 14 14 14 13 13 13 13 13 13 13 13 13 13 12 12 12 12 12 12 11 11 11 11 11 11 11 11 11
19 19 18 17 17 17 16 16 16 16 15 15 14 14 14 14 13 13 13 13 13 13 13 13 12 12 12 12 12 12 12 12 11 11 11 11 11 11 11 11 11 11 11
19 19 18 17 17 17 16 16 16 15 15 14 14 14 13 13 13 13 12 12 12 12 12 12 12 12 12 12 11 11 11 11 11 11 10 10 10 10 10 10 11 11 11
19 18 18 17 17 16 16 16 15 15 15 15 14 14 13 13 13 12 12 12 12 12 11 11 11 11 11 11 11 10 10 10 10 10 10 10 10 10 10 10 10 10 10
19 18 17 17 16 16 16 16 15 15 15 15 14 14 13 13 12 12 12 12 12 11 11 11 10 10 10 10 10 10 10 10 10 9 9 9 9 9 9 9 9 9 9
18 18 17 17 16 16 16 16 16 15 15 14 14 13 13 12 12 12 11 11 11 11 10 10 10 10 10 9 9 9 9 9 9 9 9 8 8 8 8 8 8 8 8
18 17 17 17 16 16 16 16 16 15 15 14 13 13 12 12 12 11 11 11 10 10 10 9 9 9 9 9 9 8 8 8 8 8 7 7 7 7 7 7 7 6 6
17 17 17 16 16 16 16 15 15 15 14 14 13 12 12 11 11 11 10 10 10 9 9 8 8 8 8 8 8 7 7 7 7 6 6 6 6 6 6 5 5 5 5
16 16 16 16 16 15 15 15 14 14 13 13 13 12 12 11 10 10 9 9 9 8 8 8 8 7 7 7 7 6 6 6 6 5 5 5 5 5 5 4 4 4 4
15 16 16 15 15 15 14 14 14 13 13 12 12 12 11 10 10 9 9 8 8 8 7 7 7 7 6 6 6 5 5 5 5 5 4 4 4 4 4 4 3 3 3
14 15 15 14 14 14 14 13 13 13 12 12 11 10 10 9 9 8 8 8 7 7 7 6 6 6 6 5 5 5 4 4 4 4 4 4 3 3 3 3 2 2 2
13 14 13 13 13 13 13 13 12 12 11 11 11 10 9 8 8 8 7 7 7 6 6 6 5 5 5 4 4 4 4 4 3 3 3 3 3 3 2 2 2 2 1
12 13 12 12 12 12 12 12 12 11 11 10 10 10 9 8 8 7 7 6 6 6 5 5 5 4 4 4 4 3 3 3 3 3 3 2 2 2 2 1 1 1 0
11 11 11 12 12 12 12 11 11 10 10 9 9 9 8 7 7 6 6 6 5 5 5 4 4 4 3 3 3 3 3 3 3 2 2 2 2 2 1 1 0 0 -0
10 10 11 11 11 11 11 10 10 10 9 9 8 8 7 7 6 6 5 5 5 4 4 4 3 3 3 3 3 3 3 2 2 2 2 2 2 1 1 0 -0 -1 -1

GEFSGL_850_meantemp_096.txt.gz
Temperature
17 16 15 15 15 14 14 14 14 14 14 14 14 13 13 13 13 13 13 13 13 13 13 13 13 13 13 13 13 13 13 13 14 14 14 14 14 14 14 14 14 14 15
17 16 16 15 15 15 15 14 14 14 14 14 14 14 13 13 13 13 13 13 13 13 13 13 13 13 13 13 13 13 13 13 13 14 14 14 14 14 14 14 14 14 14
17 17 16 15 15 15 15 15 14 14 14 14 14 14 14 13 13 13 13 13 13 13 13 13 13 13 13 13 13 13 13 13 13 13 13 13 13 13 14 14 14 14 14
17 17 16 16 15 15 15 15 15 14 14 14 14 14 14 14 13 13 13 13 13 13 13 13 13 13 13 13 13 13 13 13 13 13 13 13 13 13 13 13 14 14 14
18 17 17 16 16 15 15 15 15 15 15 14 14 14 14 14 14 14 14 13 13 13 13 13 13 13 13 13 13 13 13 13 13 13 13 13 13 13 13 13 13 13 14
18 17 17 16 16 16 15 15 15 15 15 15 15 14 14 14 14 14 14 14 14 13 13 13 13 13 13 13 13 13 13 13 13 13 13 13 13 13 13 13 13 13 13
18 18 17 17 16 16 16 15 15 15 15 15 15 15 15 14 14 14 14 14 14 13 13 13 13 13 13 13 13 13 13 13 12 12 12 12 12 12 12 12 12 12 13
19 18 18 17 16 16 16 16 15 15 15 15 15 15 15 15 14 14 14 14 14 14 13 13 13 13 13 13 13 13 13 12 12 12 12 12 12 12 12 12 12 12 12
19 19 18 17 17 16 16 16 16 16 15 15 15 15 15 15 14 14 14 14 14 14 13 13 13 13 13 13 13 13 13 12 12 12 12 12 12 12 12 12 12 12 12
20 19 19 18 17 17 16 16 16 16 16 15 15 15 15 15 15 14 14 14 14 13 13 13 13 13 13 13 13 13 13 12 12 12 12 12 12 12 12 11 11 11 11
20 19 19 18 18 17 17 16 16 16 16 15 15 15 15 15 15 14 14 14 14 13 13 13 13 13 13 13 13 12 12 12 12 12 12 12 11 11 11 11 11 11 11
19 19 19 19 18 18 17 17 16 16 16 15 15 15 15 15 14 14 14 14 13 13 13 13 13 13 12 12 12 12 12 12 12 12 12 11 11 11 11 11 11 11 11
19 19 19 19 18 18 18 17 17 16 16 15 15 15 15 15 14 14 14 13 13 13 13 13 12 12 12 12 12 12 12 11 11 11 11 11 11 11 10 10 10 10 10
18 18 18 18 18 18 18 17 17 16 16 16 15 15 15 15 15 14 14 13 13 13 12 12 12 12 12 12 12 11 11 11 11 11 11 11 10 10 10 10 10 10 10
17 17 17 18 18 18 18 18 17 17 17 16 16 16 15 15 15 14 14 13 13 12 12 12 12 11 11 11 11 11 11 11 11 10 10 10 10 10 10 10 10 10 10
15 16 16 17 17 17 18 17 17 17 16 16 16 15 15 15 14 14 13 13 12 12 12 12 11 11 11 11 11 10 10 10 10 10 10 10 9 9 9 9 9 9 9
14 15 15 16 16 17 17 17 17 17 16 16 16 15 15 14 14 14 13 13 12 12 11 11 11 11 11 10 10 10 10 10 10 9 9 9 9 9 8 8 8 8 8
13 14 14 15 15 16 16 16 16 16 16 16 16 15 15 14 14 13 13 12 12 12 11 11 11 11 10 10 10 10 9 9 9 9 9 8 8 8 8 7 7 7 7
12 12 13 14 14 15 15 15 16 16 16 16 15 15 14 14 13 13 13 12 12 12 11 11 11 10 10 10 9 9 9 9 8 8 8 8 7 7 7 6 6 6 6
11 11 12 12 13 13 14 14 14 15 15 15 15 15 14 14 13 13 13 12 12 12 11 11 10 10 9 9 9 8 8 8 8 7 7 7 6 6 6 6 5 5 5
10 10 11 11 12 12 13 13 14 14 14 14 14 14 14 14 14 13 13 12 12 11 11 10 10 9 9 9 8 8 8 7 7 7 6 6 6 5 5 5 5 4 4
9 9 10 10 11 11 12 12 13 13 13 14 14 13 13 13 13 13 12 12 11 11 11 10 10 9 9 8 8 8 7 7 6 6 6 5 5 5 4 4 4 4 4
8 8 9 9 10 10 11 11 12 12 13 13 13 13 13 13 12 12 12 11 11 10 10 9 9 8 8 7 7 7 7 6 6 5 5 5 4 4 4 4 4 3 3
7 7 8 8 9 9 10 10 11 11 12 12 12 12 12 12 12 12 11 10 10 9 9 8 8 8 7 7 6 6 6 5 5 5 4 4 4 4 4 3 3 3 3
6 7 7 7 8 8 9 9 10 10 11 11 11 12 12 12 11 11 10 10 9 9 8 8 7 7 6 6 6 5 5 5 4 4 4 4 4 3 3 3 3 2 2
6 6 6 7 7 8 8 8 9 10 10 10 11 11 11 11 11 10 9 9 8 8 7 7 6 6 6 5 5 5 4 4 4 4 4 3 3 3 3 3 2 2 1

GEFSGL_850_meantemp_102.txt.gz
Temperature
18 17 17 16 15 15 14 14 14 14 13 13 13 13 13 13 13 13 13 13 13 13 13 13 13 13 13 13 13 13 13 13 14 14 14 14 14 14 14 14 14 14 15
18 17 17 16 16 15 15 14 14 14 14 13 13 13 13 13 13 13 13 13 13 13 13 13 13 13 13 13 13 13 13 13 13 13 13 13 14 14 14 14 14 14 14
18 17 17 16 16 16 15 14 14 14 14 14 14 13 13 13 13 13 13 13 13 13 13 13 13 13 13 13 13 13 13 13 13 13 13 13 13 13 13 14 14 14 14
18 18 17 17 16 16 15 15 14 14 14 14 14 14 13 13 13 13 13 13 13 13 13 13 13 13 12 12 13 13 13 13 13 13 13 13 13 13 13 13 13 13 14
18 18 18 17 17 16 16 15 15 14 14 14 14 14 14 14 13 13 13 13 13 13 13 13 13 13 12 12 12 12 12 12 13 13 13 13 13 13 13 13 13 13 13
19 18 18 17 17 16 16 16 15 15 15 14 14 14 14 14 14 14 13 13 13 13 13 13 13 13 13 12 12 12 12 12 12 12 12 12 12 12 12 12 13 13 13
18 18 18 17 17 16 16 16 15 15 15 15 15 14 14 14 14 14 14 13 13 13 13 13 13 13 13 13 12 12 12 12 12 12 12 12 12 12 12 12 12 12 12
18 18 17 17 17 17 16 16 16 16 15 15 15 15 14 14 14 14 14 13 13 13 13 13 13 13 13 13 12 13 12 12 12 12 12 12 12 12 12 12 12 12 12
17 17 17 17 17 17 17 16 16 16 16 15 15 15 15 15 14 14 14 14 13 13 13 13 13 13 13 13 12 13 12 12 12 12 12 12 12 12 12 12 12 12 12
16 16 16 16 17 17 17 17 16 16 16 16 15 15 15 15 15 14 14 14 14 13 13 13 13 13 13 13 13 12 12 12 12 12 12 12 12 12 12 12 11 11 11
15 16 16 16 16 17 17 17 17 16 16 16 15 15 15 15 15 14 14 14 14 14 13 13 13 13 13 13 12 12 12 12 12 12 12 12 11 11 11 11 11 11 11
14 15 15 16 16 16 16 16 16 16 16 16 16 15 15 15 15 15 14 14 14 14 14 13 13 13 13 12 12 12 12 12 12 12 11 11 11 11 11 11 11 11 11
14 14 14 15 15 15 15 16 16 16 16 16 16 16 16 15 15 15 14 14 14 14 14 13 13 12 12 12 12 12 12 12 12 11 11 11 11 11 11 11 10 10 10
12 13 13 14 14 14 14 14 15 15 15 15 15 16 16 16 15 15 15 14 14 14 14 13 13 12 12 12 12 12 12 11 11 11 11 11 11 11 10 10 10 10 10
11 12 12 12 13 13 14 14 14 14 14 14 15 15 15 15 16 15 15 15 14 14 13 13 12 12 12 12 12 12 11 11 11 11 11 11 10 10 10 10 10 9 9
10 10 11 11 12 12 12 13 14 14 14 14 14 14 15 15 15 15 15 14 14 14 13 13 13 12 12 12 12 11 11 11 11 11 10 10 10 10 10 9 9 9 9
9 9 9 10 10 11 11 11 12 13 14 14 14 14 14 14 14 14 14 14 13 13 13 13 13 12 12 12 11 11 11 11 10 10 10 10 9 9 9 9 9 8 8
9 8 9 9 9 9 10 10 10 11 12 13 14 14 14 14 14 14 14 13 13 13 13 13 13 12 12 12 11 11 11 10 10 10 9 9 9 9 9 8 8 8 8
8 8 8 8 8 9 9 9 9 10 10 11 12 13 13 13 13 13 13 13 13 13 13 13 12 12 12 11 11 11 10 10 10 9 9 9 8 8 8 8 8 7 7
7 7 7 7 7 8 8 8 9 9 9 10 11 11 12 12 12 12 12 12 13 13 13 13 12 12 12 11 11 10 10 10 9 9 9 8 8 8 8 7 7 7 6
7 7 7 7 7 7 7 7 8 8 8 9 10 10 10 11 11 12 12 12 12 12 12 12 12 12 11 11 10 10 10 9 9 9 8 8 8 7 7 7 6 6 6
6 6 6 6 6 6 6 7 7 7 8 8 9 9 9 10 10 10 11 12 12 12 12 12 11 11 11 10 10 10 9 9 9 8 8 8 7 7 6 6 6 5 5
6 6 6 5 5 5 6 6 6 7 7 7 8 8 9 9 9 10 10 11 11 11 11 11 11 10 10 10 10 9 9 9 9 8 8 7 7 6 6 6 5 5 5
6 5 5 5 5 5 5 5 6 6 6 7 7 8 8 8 9 9 9 10 10 10 10 10 10 10 10 9 9 9 9 8 8 8 7 7 6 6 5 5 5 4 4
5 5 5 5 5 5 5 5 5 5 6 6 6 7 7 8 8 9 9 9 9 10 10 10 10 9 9 9 8 8 8 8 7 7 7 6 6 5 5 5 4 4 3
5 5 4 4 4 4 4 4 4 4 5 5 6 6 6 7 7 8 8 8 9 9 9 9 9 9 8 8 8 8 7 7 7 6 6 5 5 5 4 4 4 3 3

GEFSGL_850_meantemp_108.txt.gz
Temperature
18 18 17 17 17 16 16 15 15 14 14 14 14 14 13 13 13 13 13 13 13 13 13 13 13 13 13 13 13 13 13 13 14 14 13 14 14 14 14 14 14 14 15
18 18 17 17 17 16 16 15 15 15 14 14 14 14 14 13 13 13 13 13 13 13 13 13 13 13 13 13 13 13 13 13 13 14 13 13 13 13 14 14 14 14 14
18 18 17 17 16 16 16 15 15 15 14 14 14 14 14 14 13 13 13 13 13 13 13 13 13 13 13 13 13 13 13 13 13 13 13 13 13 13 13 13 13 14 14
18 18 17 16 16 16 16 15 15 15 15 14 14 14 14 14 14 14 13 13 13 13 13 13 13 13 13 13 13 13 13 13 13 13 13 13 13 13 13 13 13 13 13
18 17 17 16 16 16 16 16 16 15 15 14 14 14 14 14 14 14 14 13 13 13 13 13 13 13 13 13 12 12 12 13 13 13 13 13 13 13 13 13 13 13 13
17 17 16 16 16 16 16 15 15 15 15 15 14 14 14 14 14 14 14 14 13 13 13 13 13 13 13 13 13 13 13 12 13 13 13 13 13 13 13 13 13 13 13
16 16 16 16 16 16 16 15 15 15 15 15 15 15 15 14 15 14 14 14 14 14 14 13 13 13 13 13 13 13 13 13 13 13 13 13 13 13 12 12 12 13 13
15 15 15 15 15 15 15 15 15 15 15 15 15 15 15 15 15 15 14 14 14 14 14 13 13 13 13 13 13 13 12 13 13 13 12 12 12 12 12 12 12 12 12
14 14 14 14 14 14 15 15 14 15 15 15 15 15 15 15 15 15 14 14 14 14 14 14 13 13 13 13 13 12 12 12 13 13 12 12 12 12 12 12 12 12 12
13 13 13 13 13 14 14 14 14 14 14 14 14 15 15 15 15 15 15 14 14 14 14 14 14 13 13 13 13 12 12 12 12 12 12 12 12 12 12 12 12 12 12
12 12 13 13 13 13 13 13 13 13 13 13 14 14 14 14 15 15 15 14 14 14 14 14 14 14 14 13 13 13 12 12 12 12 12 12 12 11 12 12 11 11 11
12 12 12 12 12 12 12 12 12 13 13 13 13 13 13 13 14 14 15 15 14 14 14 14 14 14 14 13 13 13 13 12 12 12 12 11 11 11 11 11 11 11 11
11 11 11 11 11 11 11 11 11 12 12 12 12 12 12 13 13 14 14 14 14 14 13 13 13 14 14 13 13 13 13 12 12 12 12 12 11 11 11 11 11 11 11
10 10 10 10 10 10 10 11 11 11 11 11 11 11 11 12 12 13 13 13 14 14 13 13 13 13 13 13 13 13 12 12 12 12 12 12 11 11 11 11 11 11 10
10 10 10 10 10 10 10 10 10 10 10 10 10 10 10 11 12 12 12 12 13 13 13 12 12 12 13 12 12 12 12 12 11 11 11 11 11 11 11 10 10 10 10
9 9 9 9 9 9 9 9 9 9 10 10 10 10 10 10 11 11 12 12 12 12 12 12 12 12 12 12 12 12 12 11 11 11 11 11 11 10 10 10 10 10 10
9 9 9 8 8 8 8 8 8 9 9 9 9 10 10 10 10 11 11 11 12 12 11 11 12 12 12 12 12 12 12 11 11 11 11 11 10 10 10 10 10 9 9
8 8 8 8 8 8 8 8 7 7 8 8 8 9 9 9 10 10 11 11 11 11 11 11 11 11 12 12 12 12 11 11 11 11 11 10 10 10 10 9 9 9 9
8 8 7 7 7 7 7 7 7 7 7 7 7 8 8 8 9 9 10 10 10 10 10 11 11 11 11 11 11 11 11 11 11 11 10 10 10 10 9 9 9 9 9
8 7 7 7 7 7 7 7 7 7 7 7 7 7 7 7 8 8 8 9 9 9 10 10 10 10 11 11 11 11 11 11 10 10 10 10 10 9 9 9 9 9 8
7 7 7 6 6 7 6 6 6 6 6 6 6 6 6 6 6 7 7 8 8 9 9 9 9 10 10 10 10 10 10 10 10 10 10 9 9 9 9 9 8 8 8
7 7 6 6 6 6 6 6 6 6 6 6 6 6 6 6 6 6 7 7 7 8 8 9 9 9 10 10 10 10 10 10 10 9 9 9 9 9 9 8 8 8 7
6 6 6 6 6 6 5 5 5 5 5 5 5 5 5 5 5 5 6 6 7 7 7 8 8 8 9 9 9 10 9 9 9 9 9 9 9 8 8 8 8 7 7
6 6 6 6 6 5 5 5 5 5 5 5 5 5 4 4 4 5 5 5 6 6 6 7 7 8 8 9 9 9 9 9 9 9 9 9 9 8 8 8 8 7 7
6 6 5 5 5 5 5 5 5 5 5 4 4 4 4 4 4 4 4 5 5 5 6 6 7 7 8 8 8 8 9 9 9 8 8 8 8 8 8 7 7 7 6
5 5 5 5 5 5 4 4 4 4 4 4 4 4 3 3 4 4 4 4 4 5 5 6 6 6 7 7 8 8 8 8 8 8 8 8 8 8 7 7 7 7 6

GEFSGL_850_meantemp_114.txt.gz
Temperature
18 18 18 17 17 17 17 17 16 16 16 16 16 16 15 15 15 15 15 14 14 14 14 14 14 14 14 14 14 14 14 14 14 14 14 14 14 14 15 15 15 15 15
18 17 17 17 17 17 17 16 16 16 16 16 16 16 16 15 15 15 15 14 14 14 14 14 14 14 14 14 14 14 14 14 14 14 14 14 14 14 14 14 14 14 15
17 17 17 17 17 17 16 16 16 16 16 16 16 16 16 16 15 15 15 15 15 14 14 14 14 14 14 14 14 14 14 14 14 14 14 14 14 14 14 14 14 14 14
17 17 16 16 16 16 16 16 16 16 16 16 16 16 16 16 15 15 15 15 15 15 14 14 14 14 14 14 14 14 14 14 14 14 14 14 14 14 14 14 14 14 14
16 16 16 16 16 16 16 15 15 15 15 15 15 15 15 15 15 15 15 15 15 15 15 15 14 14 14 14 14 14 14 13 13 13 13 13 14 13 14 14 14 14 14
16 15 15 15 15 15 15 15 15 15 15 15 15 15 15 15 15 15 15 15 15 15 15 15 15 15 14 14 14 14 14 13 13 13 13 13 14 14 14 14 13 13 13
16 15 15 15 15 14 14 14 14 14 14 14 14 14 15 15 15 15 15 15 15 15 15 15 15 15 15 14 14 14 14 14 14 14 13 14 14 14 14 13 13 13 13
15 15 14 14 14 14 14 14 14 14 14 14 14 14 14 14 14 14 14 14 14 15 15 15 15 15 15 14 14 14 14 14 14 14 14 14 14 14 13 13 13 13 13
14 14 14 13 13 13 13 13 13 13 13 13 13 13 13 13 13 13 14 14 14 14 14 14 15 15 15 14 14 14 14 14 14 14 14 13 13 13 13 13 13 13 13
14 13 13 13 13 13 13 13 13 13 12 12 12 12 12 13 13 13 13 13 13 13 14 14 14 14 15 14 14 14 14 14 13 13 13 13 13 13 13 13 13 13 13
13 13 12 12 12 12 12 12 12 12 12 12 12 12 12 12 12 12 12 12 12 13 13 13 14 14 14 14 14 14 14 14 13 13 13 13 13 13 13 13 13 13 12
12 12 12 12 12 12 12 12 12 11 11 11 11 11 11 11 11 11 11 12 12 12 12 13 13 14 14 14 14 14 14 13 13 13 13 13 13 13 13 13 13 12 12
12 12 12 12 12 11 11 11 11 11 11 11 11 11 11 11 10 10 11 11 11 11 12 12 12 13 13 13 13 13 13 13 13 13 13 13 13 13 12 12 12 12 12
11 11 11 11 11 11 11 11 11 10 10 10 10 10 10 10 10 10 10 10 10 11 11 12 12 12 13 13 13 13 13 13 13 13 13 13 13 12 12 12 12 12 12
11 11 11 11 11 10 10 10 10 10 10 10 10 9 9 9 9 9 9 9 9 10 10 10 11 12 12 12 12 12 12 12 12 12 12 12 12 12 12 12 12 12 11
11 11 10 10 10 10 10 9 9 9 9 9 9 9 9 9 9 9 9 9 9 9 9 9 10 10 11 11 11 11 12 12 12 12 12 12 12 12 12 12 12 11 11
10 10 10 10 10 9 9 9 9 9 9 9 9 8 8 8 8 8 8 8 9 9 9 9 9 9 10 10 10 11 11 11 11 12 12 12 11 11 11 11 11 11 11
10 10 10 10 9 9 9 9 8 8 8 8 8 8 8 8 8 8 8 8 8 8 8 8 8 9 9 9 10 10 10 11 11 11 11 11 11 11 11 11 11 11 11
10 10 9 9 9 9 9 8 8 8 8 8 8 8 8 8 7 7 7 7 7 7 7 8 8 8 8 9 9 9 10 10 10 10 11 11 11 11 11 11 10 10 10
10 9 9 9 9 8 8 8 8 8 8 8 8 7 7 7 7 7 7 7 6 6 7 7 7 7 8 8 8 9 9 9 9 10 10 10 10 11 11 10 10 10 10
9 9 9 9 8 8 8 8 8 8 8 7 7 7 7 7 7 6 6 6 6 6 6 6 6 6 7 7 8 8 8 8 9 9 9 10 10 10 10 10 10 10 10
9 9 8 8 8 8 8 8 8 7 7 7 7 7 7 6 6 6 6 6 6 5 5 5 5 6 6 6 7 7 7 8 8 8 9 9 9 9 9 9 10 9 9
9 8 8 8 8 8 8 7 7 7 7 7 6 6 6 6 6 6 6 5 5 5 5 5 5 5 5 6 6 6 6 7 7 8 8 8 8 9 9 9 9 9 9
8 8 8 8 7 7 7 7 7 7 7 6 6 6 6 6 5 5 5 5 5 4 4 4 4 4 5 5 5 6 6 6 7 7 8 8 8 8 8 8 8 9 9
8 8 7 7 7 7 7 7 7 6 6 6 6 5 5 5 5 5 4 4 4 4 4 4 4 4 4 4 5 5 5 6 6 7 7 7 7 8 8 8 8 8 8
7 7 7 7 7 7 7 6 6 6 6 5 5 5 5 4 4 4 4 4 3 3 3 3 3 3 4 4 4 5 5 5 6 6 7 7 7 7 7 7 7 7 7